BAW613 LIRP-EGLL

Flight info

Callsign BAW613
Flight time 1h 47m
Altitude 36000
Route SPEZI DCT ASTIG DCT AOSTA DCT ORSUD DCT MOLUS DCT IBODI DCT GOTED DCT TRO DCT CLM DCT KOPOR DCT ABNUR DCT DIMAL DCT ALESO
Aircraft A319/M-SDE3FGIJ1KRWXY/LB1

Departure

Time 2026-05-05 15:56
Airport Pisa International Airport (LIRP)

Arrival

Time 2026-05-05 17:44
Airport London Heathrow Airport (EGLL)
Time Latitude Longitude Altitude Speed Heading
2026-05-05 15:10 43.69757 10.39974 15 ft 0 kts
2026-05-05 15:44 43.69742 10.39970 15 ft 4 kts
2026-05-05 15:44 43.69716 10.39962 15 ft 4 kts 24°
2026-05-05 15:44 43.69697 10.39942 18 ft 4 kts 70°
2026-05-05 15:45 43.69694 10.39925 15 ft 0 kts 99°
2026-05-05 15:49 43.69694 10.39926 15 ft 1 kts 99°
2026-05-05 15:49 43.69692 10.39945 17 ft 3 kts 99°
2026-05-05 15:49 43.69687 10.39985 16 ft 5 kts 99°
2026-05-05 15:50 43.69678 10.40042 15 ft 6 kts 118°
2026-05-05 15:50 43.69632 10.40058 15 ft 8 kts 172°
2026-05-05 15:50 43.69572 10.40069 16 ft 10 kts 173°
2026-05-05 15:50 43.69498 10.40083 19 ft 11 kts 170°
2026-05-05 15:51 43.69425 10.40098 21 ft 9 kts 173°
2026-05-05 15:51 43.69365 10.40105 23 ft 10 kts 180°
2026-05-05 15:51 43.69298 10.40046 22 ft 14 kts 218°
2026-05-05 15:51 43.69213 10.39958 23 ft 16 kts 216°
2026-05-05 15:52 43.69111 10.39855 21 ft 20 kts 216°
2026-05-05 15:52 43.68983 10.39727 19 ft 25 kts 216°
2026-05-05 15:52 43.68833 10.39572 19 ft 29 kts 218°
2026-05-05 15:52 43.68664 10.39393 17 ft 32 kts 217°
2026-05-05 15:53 43.68474 10.39196 19 ft 36 kts 217°
2026-05-05 15:53 43.68339 10.39057 16 ft 25 kts 217°
2026-05-05 15:53 43.68188 10.38900 14 ft 29 kts 216°
2026-05-05 15:53 43.68011 10.38720 14 ft 33 kts 217°
2026-05-05 15:54 43.67827 10.38528 16 ft 24 kts 217°
2026-05-05 15:54 43.67700 10.38398 15 ft 20 kts 217°
2026-05-05 15:54 43.67573 10.38267 14 ft 25 kts 217°
2026-05-05 15:54 43.67453 10.38143 16 ft 21 kts 217°
2026-05-05 15:55 43.67355 10.38159 15 ft 20 kts 124°
2026-05-05 15:55 43.67294 10.38272 15 ft 11 kts 123°
2026-05-05 15:55 43.67313 10.38332 15 ft 7 kts 38°
2026-05-05 15:55 43.67406 10.38428 18 ft 41 kts 37°
2026-05-05 15:56 43.67826 10.38858 17 ft 106 kts 37°
2026-05-05 15:56 43.68563 10.39617 20 ft 157 kts 36°
2026-05-05 15:56 43.69470 10.40537 523 ft 157 kts 34°
2026-05-05 15:56 43.70331 10.41420 1080 ft 157 kts 35°
2026-05-05 15:57 43.71214 10.42313 1564 ft 158 kts 32°
2026-05-05 15:57 43.72198 10.42976 2013 ft 158 kts 15°
2026-05-05 15:57 43.73271 10.43286 2485 ft 157 kts
2026-05-05 15:57 43.74360 10.43224 2968 ft 157 kts 346°
2026-05-05 15:58 43.75419 10.42797 3414 ft 165 kts 331°
2026-05-05 15:58 43.76453 10.41921 3762 ft 185 kts 316°
2026-05-05 15:58 43.77356 10.40544 4167 ft 202 kts 300°
2026-05-05 15:58 43.77942 10.38747 4907 ft 207 kts 281°
2026-05-05 15:59 43.78215 10.36781 5756 ft 212 kts 277°
2026-05-05 15:59 43.78487 10.34739 6574 ft 217 kts 277°
2026-05-05 15:59 43.78769 10.32672 7402 ft 220 kts 277°
2026-05-05 15:59 43.79054 10.30585 8244 ft 222 kts 277°
2026-05-05 16:00 43.79339 10.28471 9093 ft 225 kts 277°
2026-05-05 16:00 43.79627 10.26333 9956 ft 227 kts 277°
2026-05-05 16:00 43.79915 10.24178 10762 ft 229 kts 276°
2026-05-05 16:00 43.80203 10.22007 11592 ft 229 kts 275°
2026-05-05 16:01 43.80246 10.19791 12217 ft 239 kts 264°
2026-05-05 16:01 43.80149 10.17385 12535 ft 262 kts 264°
2026-05-05 16:01 43.80036 10.14795 12786 ft 285 kts 264°
2026-05-05 16:01 43.79909 10.11948 12996 ft 308 kts 264°
2026-05-05 16:02 43.79779 10.08919 13488 ft 319 kts 264°
2026-05-05 16:02 43.79649 10.05840 14152 ft 323 kts 264°
2026-05-05 16:02 43.79520 10.02716 14808 ft 326 kts 264°
2026-05-05 16:02 43.79392 9.99565 15447 ft 330 kts 264°
2026-05-05 16:03 43.79261 9.96380 16075 ft 333 kts 264°
2026-05-05 16:03 43.79123 9.93167 16708 ft 337 kts 263°
2026-05-05 16:03 43.78980 9.89916 17349 ft 340 kts 263°
2026-05-05 16:03 43.78834 9.86623 17984 ft 344 kts 263°
2026-05-05 16:04 43.78688 9.83310 18586 ft 347 kts 263°
2026-05-05 16:04 43.78542 9.79958 19142 ft 350 kts 263°
2026-05-05 16:04 43.78394 9.76577 19733 ft 353 kts 263°
2026-05-05 16:04 43.78243 9.73187 20335 ft 355 kts 263°
2026-05-05 16:05 43.78089 9.69766 20930 ft 357 kts 263°
2026-05-05 16:05 43.77951 9.66368 21498 ft 360 kts 266°
2026-05-05 16:05 43.78217 9.62896 22060 ft 368 kts 279°
2026-05-05 16:05 43.79103 9.59530 22618 ft 378 kts 292°
2026-05-05 16:06 43.80610 9.56482 23164 ft 390 kts 306°
2026-05-05 16:06 43.82656 9.53947 23670 ft 400 kts 316°
2026-05-05 16:06 43.84849 9.51568 24159 ft 401 kts 315°
2026-05-05 16:06 43.87047 9.49179 24622 ft 402 kts 315°
2026-05-05 16:07 43.89247 9.46776 25070 ft 404 kts 315°
2026-05-05 16:07 43.91455 9.44357 25504 ft 406 kts 314°
2026-05-05 16:07 43.93679 9.41912 25916 ft 408 kts 314°
2026-05-05 16:07 43.95910 9.39456 26337 ft 410 kts 314°
2026-05-05 16:08 43.98159 9.36982 26758 ft 412 kts 314°
2026-05-05 16:08 44.00413 9.34501 27179 ft 414 kts 314°
2026-05-05 16:08 44.02649 9.32037 27594 ft 416 kts 314°
2026-05-05 16:08 44.04922 9.29531 28030 ft 419 kts 314°
2026-05-05 16:09 44.07213 9.27004 28396 ft 422 kts 314°
2026-05-05 16:09 44.09519 9.24457 28787 ft 424 kts 314°
2026-05-05 16:09 44.11837 9.21894 29171 ft 426 kts 314°
2026-05-05 16:09 44.14163 9.19318 29550 ft 429 kts 314°
2026-05-05 16:10 44.16501 9.16722 29920 ft 431 kts 313°
2026-05-05 16:10 44.18854 9.14110 30242 ft 433 kts 313°
2026-05-05 16:10 44.21213 9.11489 30555 ft 435 kts 313°
2026-05-05 16:10 44.23584 9.08851 30894 ft 436 kts 313°
2026-05-05 16:11 44.25960 9.06205 31222 ft 438 kts 312°
2026-05-05 16:11 44.33128 8.98221 32342 ft 437 kts 312°
2026-05-05 16:12 44.35502 8.95576 32805 ft 435 kts 311°
2026-05-05 16:12 44.40199 8.90312 33738 ft 431 kts 311°
2026-05-05 16:13 44.47150 8.82510 34887 ft 429 kts 311°
2026-05-05 16:13 44.49477 8.79898 35242 ft 429 kts 312°
2026-05-05 16:13 44.51806 8.77277 35556 ft 429 kts 312°
2026-05-05 16:14 44.56454 8.72020 35958 ft 429 kts 313°
2026-05-05 16:14 44.61105 8.66764 35968 ft 429 kts 313°
2026-05-05 16:15 44.70397 8.56240 35962 ft 429 kts 313°
2026-05-05 16:16 44.79675 8.45663 35964 ft 429 kts 312°
2026-05-05 16:17 44.86620 8.37716 35973 ft 429 kts 313°
2026-05-05 16:18 44.93558 8.29764 35955 ft 431 kts 313°
2026-05-05 16:19 45.00681 8.21888 35951 ft 435 kts 315°
2026-05-05 16:19 45.07933 8.14108 35957 ft 436 kts 315°
2026-05-05 16:20 45.17519 8.03634 35966 ft 438 kts 315°
2026-05-05 16:22 45.29599 7.90356 35961 ft 440 kts 315°
2026-05-05 16:23 45.39256 7.79697 35969 ft 441 kts 314°
2026-05-05 16:23 45.46528 7.71648 35973 ft 442 kts 314°
2026-05-05 16:24 45.51387 7.66240 35974 ft 443 kts 314°
2026-05-05 16:25 45.58683 7.58112 35980 ft 444 kts 314°
2026-05-05 16:25 45.65955 7.49996 35970 ft 444 kts 314°
2026-05-05 16:26 45.75653 7.39081 35956 ft 444 kts 314°
2026-05-05 16:27 45.80518 7.33618 35948 ft 445 kts 315°
2026-05-05 16:27 45.85538 7.28405 35935 ft 445 kts 317°
2026-05-05 16:28 45.90652 7.23342 35929 ft 447 kts 318°
2026-05-05 16:28 45.95749 7.18246 35926 ft 445 kts 317°
2026-05-05 16:29 46.00803 7.13085 35932 ft 446 kts 317°
2026-05-05 16:29 46.05817 7.07911 35908 ft 447 kts 318°
2026-05-05 16:30 46.10878 7.02702 35899 ft 447 kts 318°
2026-05-05 16:30 46.15941 6.97487 35903 ft 447 kts 318°
2026-05-05 16:31 46.20999 6.92257 35899 ft 447 kts 318°
2026-05-05 16:31 46.26062 6.87011 35898 ft 448 kts 318°
2026-05-05 16:32 46.31102 6.81790 35892 ft 448 kts 318°
2026-05-05 16:32 46.36158 6.76547 35904 ft 447 kts 319°
2026-05-05 16:33 46.41221 6.71271 35895 ft 448 kts 319°
2026-05-05 16:33 46.46001 6.65561 35885 ft 441 kts 308°
2026-05-05 16:34 46.50242 6.59129 35880 ft 441 kts 308°
2026-05-05 16:34 46.54491 6.52682 35881 ft 442 kts 308°
2026-05-05 16:35 46.58710 6.46274 35907 ft 442 kts 309°
2026-05-05 16:35 46.62965 6.39815 35890 ft 443 kts 309°
2026-05-05 16:36 46.67222 6.33326 35882 ft 443 kts 308°
2026-05-05 16:36 46.71476 6.26818 35885 ft 444 kts 308°
2026-05-05 16:37 46.75735 6.20298 35884 ft 444 kts 308°
2026-05-05 16:37 46.79991 6.13753 35893 ft 444 kts 308°
2026-05-05 16:38 46.83526 6.08308 35924 ft 445 kts 309°
2026-05-05 16:38 46.87781 6.01746 35903 ft 445 kts 309°
2026-05-05 16:39 46.92031 5.95166 35891 ft 445 kts 309°
2026-05-05 16:39 46.96682 5.89133 35891 ft 453 kts 323°
2026-05-05 16:40 47.02267 5.84728 35884 ft 456 kts 328°
2026-05-05 16:40 47.07888 5.80412 35882 ft 457 kts 328°
2026-05-05 16:41 47.13484 5.76089 35895 ft 457 kts 329°
2026-05-05 16:41 47.19128 5.71713 35876 ft 458 kts 329°
2026-05-05 16:42 47.24772 5.67334 35869 ft 459 kts 329°
2026-05-05 16:42 47.30413 5.62938 35862 ft 458 kts 327°
2026-05-05 16:43 47.32982 5.60212 35866 ft 453 kts 316°
2026-05-05 16:43 47.35396 5.57221 35859 ft 453 kts 316°
2026-05-05 16:43 47.40198 5.51207 35855 ft 453 kts 316°
2026-05-05 16:44 47.44991 5.45146 35851 ft 453 kts 316°
2026-05-05 16:44 47.49760 5.39119 35867 ft 454 kts 317°
2026-05-05 16:45 47.54607 5.33106 35855 ft 455 kts 317°
2026-05-05 16:45 47.59485 5.27119 35852 ft 455 kts 317°
2026-05-05 16:46 47.64349 5.21107 35846 ft 455 kts 317°
2026-05-05 16:46 47.69207 5.15067 35838 ft 455 kts 317°
2026-05-05 16:47 47.74054 5.09011 35839 ft 456 kts 317°
2026-05-05 16:47 47.78903 5.02935 35844 ft 456 kts 317°
2026-05-05 16:48 47.83759 4.96846 35835 ft 456 kts 317°
2026-05-05 16:48 47.88602 4.90757 35828 ft 456 kts 317°
2026-05-05 16:49 47.93448 4.84654 35818 ft 456 kts 317°
2026-05-05 16:49 47.98297 4.78530 35815 ft 457 kts 317°
2026-05-05 16:50 48.03111 4.72425 35812 ft 457 kts 317°
2026-05-05 16:50 48.07955 4.66267 35826 ft 457 kts 317°
2026-05-05 16:51 48.12805 4.60105 35814 ft 457 kts 317°
2026-05-05 16:51 48.17646 4.53931 35812 ft 457 kts 317°
2026-05-05 16:52 48.22485 4.47735 35810 ft 456 kts 317°
2026-05-05 16:52 48.27323 4.41537 35805 ft 456 kts 317°
2026-05-05 16:53 48.32118 4.35375 35805 ft 456 kts 317°
2026-05-05 16:53 48.36934 4.29162 35807 ft 456 kts 318°
2026-05-05 16:54 48.41745 4.22929 35805 ft 456 kts 318°
2026-05-05 16:54 48.46559 4.16693 35799 ft 456 kts 319°
2026-05-05 16:55 48.51375 4.10447 35798 ft 456 kts 318°
2026-05-05 16:55 48.56186 4.04178 35797 ft 456 kts 318°
2026-05-05 16:56 48.60956 3.97941 35791 ft 457 kts 319°
2026-05-05 16:56 48.65770 3.91646 35792 ft 458 kts 319°
2026-05-05 16:57 48.70588 3.85326 35796 ft 458 kts 318°
2026-05-05 16:57 48.75404 3.78974 35797 ft 459 kts 318°
2026-05-05 16:58 48.80216 3.72619 35795 ft 458 kts 318°
2026-05-05 16:58 48.84996 3.66300 35794 ft 458 kts 318°
2026-05-05 16:59 48.89807 3.59923 35798 ft 459 kts 318°
2026-05-05 16:59 48.94606 3.53534 35799 ft 458 kts 318°
2026-05-05 17:00 48.99402 3.47130 35808 ft 459 kts 318°
2026-05-05 17:00 49.04201 3.40705 35804 ft 459 kts 318°
2026-05-05 17:01 49.09008 3.34260 35803 ft 459 kts 318°
2026-05-05 17:01 49.13773 3.27851 35811 ft 460 kts 318°
2026-05-05 17:02 49.18571 3.21383 35811 ft 460 kts 318°
2026-05-05 17:02 49.23367 3.14905 35810 ft 460 kts 318°
2026-05-05 17:03 49.28163 3.08405 35813 ft 460 kts 318°
2026-05-05 17:03 49.32951 3.01893 35821 ft 461 kts 318°
2026-05-05 17:04 49.37745 2.95363 35823 ft 461 kts 318°
2026-05-05 17:04 49.42540 2.88805 35830 ft 461 kts 318°
2026-05-05 17:05 49.47295 2.82281 35835 ft 461 kts 318°
2026-05-05 17:05 49.52075 2.75712 35833 ft 461 kts 317°
2026-05-05 17:06 49.56855 2.69118 35834 ft 461 kts 317°
2026-05-05 17:06 49.61629 2.62506 35847 ft 460 kts 317°
2026-05-05 17:07 49.66408 2.55930 35844 ft 460 kts 318°
2026-05-05 17:07 49.71218 2.49397 35853 ft 460 kts 318°
2026-05-05 17:08 49.76020 2.42878 35845 ft 459 kts 318°
2026-05-05 17:08 49.80797 2.36322 35849 ft 459 kts 317°
2026-05-05 17:09 49.85544 2.29792 35849 ft 458 kts 317°
2026-05-05 17:09 49.90306 2.23225 35862 ft 458 kts 318°
2026-05-05 17:10 49.95069 2.16648 35858 ft 458 kts 317°
2026-05-05 17:10 49.99832 2.10049 35860 ft 458 kts 317°
2026-05-05 17:11 50.04590 2.03430 35864 ft 459 kts 317°
2026-05-05 17:11 50.09341 1.96797 35867 ft 458 kts 317°
2026-05-05 17:12 50.14087 1.90165 35867 ft 458 kts 317°
2026-05-05 17:12 50.18813 1.83488 35861 ft 458 kts 316°
2026-05-05 17:13 50.21119 1.80064 35641 ft 456 kts 315°
2026-05-05 17:13 50.23388 1.76590 35117 ft 456 kts 314°
2026-05-05 17:13 50.25607 1.73138 34538 ft 457 kts 314°
2026-05-05 17:13 50.27859 1.69623 33915 ft 459 kts 315°
2026-05-05 17:14 50.30129 1.66098 33221 ft 459 kts 315°
2026-05-05 17:14 50.32395 1.62602 32701 ft 455 kts 315°
2026-05-05 17:14 50.34640 1.59155 32232 ft 450 kts 315°
2026-05-05 17:14 50.36869 1.55744 31721 ft 446 kts 315°
2026-05-05 17:15 50.39082 1.52359 31218 ft 442 kts 315°
2026-05-05 17:15 50.41265 1.49010 30739 ft 438 kts 314°
2026-05-05 17:15 50.43426 1.45685 30299 ft 432 kts 314°
2026-05-05 17:15 50.45561 1.42393 29830 ft 428 kts 314°
2026-05-05 17:16 50.47476 1.39429 29238 ft 427 kts 314°
2026-05-05 17:16 50.49541 1.36223 28701 ft 424 kts 314°
2026-05-05 17:16 50.51584 1.32927 28193 ft 419 kts 312°
2026-05-05 17:16 50.53565 1.29586 27684 ft 416 kts 311°
2026-05-05 17:17 50.55350 1.26494 27190 ft 414 kts 311°
2026-05-05 17:17 50.57244 1.23193 26715 ft 410 kts 311°
2026-05-05 17:17 50.59165 1.19921 26271 ft 406 kts 313°
2026-05-05 17:17 50.61124 1.16752 25856 ft 402 kts 314°
2026-05-05 17:18 50.63096 1.13664 25456 ft 397 kts 315°
2026-05-05 17:18 50.65062 1.10623 25040 ft 394 kts 314°
2026-05-05 17:18 50.67007 1.07612 24691 ft 389 kts 315°
2026-05-05 17:18 50.68923 1.04621 24310 ft 386 kts 314°
2026-05-05 17:19 50.70810 1.01649 23918 ft 382 kts 314°
2026-05-05 17:19 50.72678 0.98687 23518 ft 379 kts 314°
2026-05-05 17:19 50.74524 0.95743 23048 ft 375 kts 314°
2026-05-05 17:19 50.76354 0.92821 22519 ft 373 kts 314°
2026-05-05 17:20 50.78168 0.89918 22057 ft 369 kts 315°
2026-05-05 17:20 50.79962 0.87046 21568 ft 366 kts 315°
2026-05-05 17:20 50.81751 0.84189 21067 ft 364 kts 315°
2026-05-05 17:20 50.83524 0.81357 20564 ft 361 kts 315°
2026-05-05 17:21 50.85285 0.78537 20060 ft 359 kts 315°
2026-05-05 17:21 50.87012 0.75769 19582 ft 357 kts 315°
2026-05-05 17:21 50.88751 0.72979 19158 ft 354 kts 316°
2026-05-05 17:22 50.92175 0.67476 18299 ft 348 kts 315°
2026-05-05 17:22 50.93869 0.64741 17816 ft 346 kts 316°
2026-05-05 17:22 50.95547 0.62033 17321 ft 343 kts 316°
2026-05-05 17:22 50.97214 0.59346 16836 ft 341 kts 315°
2026-05-05 17:23 50.98875 0.56667 16343 ft 339 kts 316°
2026-05-05 17:23 51.00525 0.53997 15875 ft 337 kts 316°
2026-05-05 17:23 51.02162 0.51342 15415 ft 336 kts 315°
2026-05-05 17:23 51.03792 0.48692 14959 ft 334 kts 316°
2026-05-05 17:24 51.05417 0.46054 14504 ft 333 kts 315°
2026-05-05 17:24 51.07035 0.43432 14068 ft 331 kts 316°
2026-05-05 17:24 51.08674 0.40862 13579 ft 330 kts 317°
2026-05-05 17:24 51.10304 0.38382 13138 ft 327 kts 318°
2026-05-05 17:25 51.11946 0.35910 12692 ft 324 kts 317°
2026-05-05 17:25 51.12495 0.35085 12541 ft 322 kts 317°
2026-05-05 17:25 51.15177 0.31032 11828 ft 317 kts 317°
2026-05-05 17:25 51.16751 0.28634 11672 ft 306 kts 317°
2026-05-05 17:26 51.18261 0.26326 11503 ft 296 kts 317°
2026-05-05 17:26 51.19731 0.24074 11209 ft 291 kts 317°
2026-05-05 17:26 51.21181 0.21854 10879 ft 288 kts 317°
2026-05-05 17:26 51.22622 0.19644 10520 ft 287 kts 317°
2026-05-05 17:27 51.24053 0.17443 10169 ft 285 kts 316°
2026-05-05 17:27 51.25472 0.15255 9828 ft 282 kts 316°
2026-05-05 17:27 51.26874 0.13091 9442 ft 280 kts 316°
2026-05-05 17:27 51.28265 0.10946 9194 ft 274 kts 316°
2026-05-05 17:28 51.29159 0.09568 9097 ft 267 kts 317°
2026-05-05 17:28 51.30473 0.07540 8952 ft 258 kts 317°
2026-05-05 17:28 51.31701 0.05509 8803 ft 251 kts 307°
2026-05-05 17:28 51.32311 0.02964 8654 ft 247 kts 278°
2026-05-05 17:29 51.32368 0.00219 8397 ft 246 kts 271°
2026-05-05 17:29 51.32358 -0.02521 8064 ft 246 kts 271°
2026-05-05 17:29 51.32347 -0.05248 7932 ft 245 kts 271°
2026-05-05 17:29 51.32335 -0.07973 7942 ft 246 kts 271°
2026-05-05 17:30 51.32319 -0.10709 7944 ft 246 kts 271°
2026-05-05 17:30 51.32300 -0.13444 7944 ft 246 kts 271°
2026-05-05 17:30 51.32280 -0.16178 7947 ft 246 kts 271°
2026-05-05 17:30 51.32256 -0.18915 7945 ft 246 kts 271°
2026-05-05 17:31 51.32231 -0.21608 7946 ft 246 kts 271°
2026-05-05 17:31 51.32209 -0.24343 7944 ft 246 kts 271°
2026-05-05 17:31 51.32190 -0.27071 7944 ft 246 kts 271°
2026-05-05 17:31 51.32168 -0.29803 7945 ft 246 kts 271°
2026-05-05 17:32 51.32148 -0.32534 7944 ft 246 kts 271°
2026-05-05 17:32 51.32130 -0.35266 7943 ft 246 kts 271°
2026-05-05 17:32 51.32110 -0.37998 7943 ft 246 kts 271°
2026-05-05 17:32 51.32088 -0.40728 7943 ft 246 kts 271°
2026-05-05 17:33 51.32064 -0.43460 7942 ft 246 kts 271°
2026-05-05 17:33 51.32041 -0.46192 7942 ft 246 kts 271°
2026-05-05 17:33 51.32018 -0.48930 7944 ft 246 kts 271°
2026-05-05 17:33 51.31994 -0.51663 7946 ft 246 kts 271°
2026-05-05 17:34 51.31968 -0.54393 7947 ft 246 kts 271°
2026-05-05 17:34 51.31945 -0.57129 7946 ft 246 kts 271°
2026-05-05 17:34 51.31921 -0.59862 7948 ft 246 kts 271°
2026-05-05 17:34 51.31899 -0.62601 7945 ft 246 kts 271°
2026-05-05 17:35 51.31878 -0.65317 7713 ft 244 kts 271°
2026-05-05 17:35 51.31854 -0.68029 7447 ft 243 kts 271°
2026-05-05 17:35 51.31825 -0.70723 7194 ft 242 kts 271°
2026-05-05 17:35 51.31793 -0.73410 6905 ft 241 kts 271°
2026-05-05 17:36 51.31758 -0.76083 6614 ft 240 kts 271°
2026-05-05 17:36 51.31720 -0.78744 6327 ft 239 kts 271°
2026-05-05 17:36 51.31703 -0.81386 5998 ft 237 kts 276°
2026-05-05 17:36 51.32200 -0.83819 5665 ft 229 kts 308°
2026-05-05 17:37 51.33401 -0.85361 5336 ft 225 kts 340°
2026-05-05 17:37 51.34934 -0.85754 4998 ft 225 kts 359°
2026-05-05 17:37 51.36497 -0.85791 4678 ft 225 kts
2026-05-05 17:37 51.38063 -0.85791 4385 ft 224 kts
2026-05-05 17:38 51.39620 -0.85784 4278 ft 224 kts
2026-05-05 17:38 51.41183 -0.85774 4174 ft 224 kts
2026-05-05 17:38 51.42744 -0.85762 4071 ft 224 kts
2026-05-05 17:38 51.44302 -0.85742 3999 ft 223 kts
2026-05-05 17:39 51.45770 -0.85053 4002 ft 223 kts 33°
2026-05-05 17:39 51.46875 -0.83301 4004 ft 225 kts 55°
2026-05-05 17:39 51.47492 -0.81007 3972 ft 227 kts 77°
2026-05-05 17:39 51.47592 -0.78472 3754 ft 228 kts 88°
2026-05-05 17:40 51.47604 -0.75937 3469 ft 227 kts 88°
2026-05-05 17:40 51.47619 -0.73412 3172 ft 226 kts 88°
2026-05-05 17:40 51.47634 -0.70912 2865 ft 221 kts 87°
2026-05-05 17:40 51.47648 -0.68472 2571 ft 217 kts 87°
2026-05-05 17:41 51.47662 -0.66092 2276 ft 207 kts 87°
2026-05-05 17:41 51.47674 -0.63850 2009 ft 194 kts 88°
2026-05-05 17:41 51.47685 -0.61769 1776 ft 180 kts 88°
2026-05-05 17:41 51.47695 -0.59826 1507 ft 167 kts 87°
2026-05-05 17:42 51.47704 -0.58037 1295 ft 154 kts 87°
2026-05-05 17:42 51.47711 -0.56406 1102 ft 138 kts 86°
2026-05-05 17:42 51.47720 -0.54905 861 ft 132 kts 88°
2026-05-05 17:42 51.47724 -0.53458 708 ft 131 kts 88°
2026-05-05 17:43 51.47720 -0.51995 495 ft 132 kts 87°
2026-05-05 17:43 51.47740 -0.50525 348 ft 132 kts 86°
2026-05-05 17:43 51.47748 -0.49042 192 ft 132 kts 85°
2026-05-05 17:43 51.47752 -0.47596 87 ft 121 kts 87°
2026-05-05 17:44 51.47760 -0.46461 89 ft 78 kts 88°
2026-05-05 17:44 51.47761 -0.45867 84 ft 38 kts 90°
2026-05-05 17:44 51.47760 -0.45573 85 ft 18 kts 96°
2026-05-05 17:44 51.47686 -0.45467 86 ft 9 kts 180°
2026-05-05 17:45 51.47629 -0.45466 86 ft 5 kts 180°
2026-05-05 17:45 51.47603 -0.45473 89 ft 4 kts 206°
2026-05-05 17:45 51.47596 -0.45545 86 ft 9 kts 269°
2026-05-05 17:45 51.47595 -0.45663 86 ft 12 kts 270°
2026-05-05 17:46 51.47596 -0.45817 87 ft 15 kts 270°
2026-05-05 17:46 51.47595 -0.46005 86 ft 18 kts 270°
2026-05-05 17:46 51.47595 -0.46196 86 ft 16 kts 270°
2026-05-05 17:46 51.47594 -0.46388 86 ft 19 kts 269°
2026-05-05 17:47 51.47593 -0.46608 86 ft 21 kts 269°
2026-05-05 17:47 51.47591 -0.46804 86 ft 18 kts 264°
2026-05-05 17:47 51.47582 -0.46980 86 ft 13 kts 270°
2026-05-05 17:47 51.47583 -0.47126 86 ft 13 kts 270°
2026-05-05 17:48 51.47582 -0.47260 88 ft 12 kts 269°
2026-05-05 17:48 51.47581 -0.47394 86 ft 12 kts 270°
2026-05-05 17:48 51.47581 -0.47532 88 ft 13 kts 270°
2026-05-05 17:48 51.47579 -0.47677 86 ft 13 kts 268°
2026-05-05 17:49 51.47581 -0.47823 86 ft 13 kts 271°
2026-05-05 17:49 51.47580 -0.47973 86 ft 14 kts 269°
2026-05-05 17:49 51.47579 -0.48135 88 ft 14 kts 269°
2026-05-05 17:49 51.47578 -0.48292 90 ft 14 kts 265°
2026-05-05 17:50 51.47513 -0.48360 86 ft 12 kts 179°
2026-05-05 17:50 51.47431 -0.48360 86 ft 12 kts 180°
2026-05-05 17:50 51.47353 -0.48360 86 ft 11 kts 181°
2026-05-05 17:50 51.47280 -0.48356 86 ft 10 kts 179°
2026-05-05 17:51 51.47212 -0.48358 86 ft 10 kts 181°
2026-05-05 17:51 51.47151 -0.48358 86 ft 10 kts 181°
2026-05-05 17:51 51.47077 -0.48356 86 ft 11 kts 180°
2026-05-05 17:51 51.47002 -0.48356 86 ft 10 kts 179°
2026-05-05 17:52 51.46964 -0.48355 86 ft 0 kts 180°
2026-05-05 17:52 51.46960 -0.48355 88 ft 2 kts 180°
2026-05-05 17:52 51.46935 -0.48355 86 ft 5 kts 179°
2026-05-05 17:53 51.46888 -0.48376 88 ft 9 kts 222°
2026-05-05 17:53 51.46877 -0.48481 86 ft 11 kts 268°
2026-05-05 17:53 51.46877 -0.48611 86 ft 12 kts 269°
2026-05-05 17:53 51.46877 -0.48690 86 ft 6 kts 270°
2026-05-05 17:54 51.46905 -0.48715 88 ft 4 kts
2026-05-05 17:54 51.46916 -0.48715 86 ft 1 kts 360°
2026-05-05 17:54 51.46922 -0.48715 87 ft 1 kts 360°
2026-05-05 17:54 51.46928 -0.48715 88 ft 1 kts 359°
2026-05-05 17:55 51.46932 -0.48715 89 ft 0 kts 360°